Weather History for KTHV - November, 2013

Change the Weather History Date:

Monday, November 11, 2013

  Actual Average Record
Temperature  
Mean Temperature 41 °F -  
Max Temperature 52 °F 69 °F 72 °F (2006)
Min Temperature 30 °F 39 °F 23 °F (2001)
Degree Days  
Heating Degree Days 24    
Moisture  
Dew Point 28 °F    
Average Humidity 52    
Maximum Humidity 82    
Minimum Humidity 37    
Precipitation  
Precipitation 0.00 in - - ()
Sea Level Pressure  
Sea Level Pressure 30.16 in    
Wind  
Wind Speed 5 mph (SW)    
Max Wind Speed 12 mph    
Max Gust Speed 20 mph    
Visibility 10 miles    
Events      
Averages and records for this station are not official NWS values.
T = Trace of Precipitation, MM = Missing Value Source: NWS Daily Summary

Daily Weather History Graph

Daily Weather History Graph

Search for Another Location

Airport or City:

Trip Planner

Search our weather history database for the weather conditions in past years. The results will help you decide how hot, cold, wet, or windy it might be!

Date:

Astronomy

Nov. 11, 2013 Rise Set
Actual Time 6:48 AM EST 4:54 PM EST
Civil Twilight 6:19 AM EST 5:23 PM EST
Nautical Twilight 5:46 AM EST 5:55 PM EST
Astronomical Twilight 5:15 AM EST 6:27 PM EST
Moon 1:33 PM EST (11/11) 12:31 AM EST (11/11)
Length of Visible Light 11h 03m
Length of Day
10h 06m
Waxing Gibbous, 66% of the Moon is Illuminated
Nov 11
Waxing Gibbous
Nov 17
Full
Nov 25
Last Quarter
Dec 2
New
Dec 9
First Quarter

Hourly Weather History & Observations

Time (EST) Temp. Windchill Dew Point Humidity Pressure Visibility Wind Dir Wind Speed Gust Speed Precip Events Conditions
12:53 AM 44.1 °F 39.0 °F 28.0 °F 53% 30.21 in 10.0 mi WNW 9.2 mph - N/A   Overcast
1:53 AM 43.0 °F 40.3 °F 27.0 °F 53% 30.24 in 10.0 mi West 4.6 mph - N/A   Overcast
2:53 AM 37.9 °F 35.5 °F 27.0 °F 65% 30.24 in 10.0 mi WSW 3.5 mph - N/A   Clear
3:53 AM 37.0 °F - 27.0 °F 67% 30.23 in 10.0 mi Calm Calm - N/A   Clear
4:53 AM 34.0 °F 29.8 °F 26.1 °F 73% 30.25 in 10.0 mi West 4.6 mph - N/A   Clear
5:53 AM 34.0 °F 31.0 °F 27.0 °F 75% 30.25 in 10.0 mi West 3.5 mph - N/A   Clear
6:53 AM 30.9 °F - 26.1 °F 82% 30.27 in 10.0 mi Calm Calm - N/A   Clear
7:53 AM 37.9 °F - 30.9 °F 76% 30.27 in 10.0 mi Calm Calm - N/A   Clear
8:53 AM 45.0 °F 43.5 °F 30.9 °F 58% 30.27 in 10.0 mi Variable 3.5 mph - N/A   Clear
9:53 AM 48.0 °F - 30.0 °F 50% 30.27 in 10.0 mi West 8.1 mph - N/A   Clear
10:53 AM 48.0 °F - 28.9 °F 48% 30.23 in 10.0 mi SW 4.6 mph - N/A   Overcast
11:53 AM 48.9 °F - 30.9 °F 50% 30.22 in 10.0 mi SW 4.6 mph - N/A   Overcast
12:53 PM 50.0 °F - 28.9 °F 44% 30.19 in 10.0 mi SW 8.1 mph - N/A   Overcast
1:53 PM 50.0 °F - 30.0 °F 46% 30.14 in 10.0 mi South 8.1 mph - N/A   Overcast
2:53 PM 52.0 °F - 28.9 °F 41% 30.12 in 10.0 mi SSW 6.9 mph - N/A   Partly Cloudy
3:53 PM 52.0 °F - 28.9 °F 41% 30.11 in 10.0 mi SW 5.8 mph - N/A   Overcast
4:53 PM 51.1 °F - 28.9 °F 43% 30.09 in 10.0 mi SSW 4.6 mph - N/A   Overcast
5:53 PM 51.1 °F - 28.0 °F 41% 30.08 in 10.0 mi Variable 4.6 mph - N/A   Overcast
6:53 PM 51.1 °F - 27.0 °F 39% 30.06 in 10.0 mi South 8.1 mph - N/A   Mostly Cloudy
7:53 PM 51.1 °F - 27.0 °F 39% 30.04 in 10.0 mi SSW 10.4 mph - N/A   Overcast
8:53 PM 52.0 °F - 27.0 °F 38% 30.02 in 10.0 mi SSW 11.5 mph 19.6 mph N/A   Overcast
9:53 PM 52.0 °F - 26.1 °F 37% 30.02 in 10.0 mi WSW 5.8 mph - N/A   Overcast
10:53 PM 52.0 °F - 26.1 °F 37% 30.01 in 10.0 mi SW 6.9 mph - N/A   Overcast
11:53 PM 50.0 °F - 28.0 °F 43% 30.01 in 10.0 mi WSW 3.5 mph - N/A   Overcast